Location: T. Spence Memorial Observatory
(32.7356°N, 82.2098°W)
Time: 14:46:45
(UTC-04:00)

Cosmos 2219 - Visible Passes

Search period start: 27 July 2017 00:00
Search period end: 06 August 2017 00:00
Orbit: 832 x 861 km, 71.1° (Epoch: 26 July)

Date Brightness Start Highest point End Pass type
(mag) Time Alt. Az. Time Alt. Az. Time Alt. Az.
27 Jul 5.4 00:57:15 10° NW 00:59:07 17° WNW 00:59:07 17° WNW visible
27 Jul 3.9 22:58:49 10° N 23:04:04 41° ENE 23:04:04 41° ENE visible
28 Jul 5.3 00:43:43 10° NW 00:45:59 18° WNW 00:45:59 18° WNW visible
28 Jul 3.9 22:45:22 10° N 22:50:46 40° ENE 22:50:57 40° ENE visible
29 Jul 5.2 00:30:11 10° NW 00:32:53 20° WNW 00:32:53 20° WNW visible
29 Jul 3.8 22:31:55 10° N 22:37:17 39° ENE 22:37:53 38° E visible
30 Jul 5.1 00:16:40 10° NW 00:19:49 22° W 00:19:49 22° W visible
30 Jul 3.9 22:18:28 10° N 22:23:49 38° ENE 22:24:52 35° E visible
31 Jul 5.0 00:03:09 10° NW 00:06:47 23° W 00:06:47 23° W visible
31 Jul 4.0 22:05:01 10° N 22:10:19 37° ENE 22:11:52 31° E visible
31 Jul 4.9 23:49:38 10° NW 23:53:48 25° W 23:53:48 25° W visible
01 Aug 4.0 21:51:34 10° N 21:56:51 36° ENE 21:58:56 27° ESE visible
01 Aug 4.8 23:36:07 10° NW 23:40:44 25° WSW 23:40:52 25° WSW visible
02 Aug 4.0 21:38:07 10° N 21:43:22 35° ENE 21:46:02 23° ESE visible
02 Aug 4.7 23:22:36 10° NW 23:27:17 26° WSW 23:27:59 25° WSW visible
03 Aug 4.0 21:24:41 10° N 21:29:53 34° ENE 21:33:13 19° ESE visible
03 Aug 4.7 23:09:05 10° NW 23:13:49 27° WSW 23:15:10 24° SW visible
04 Aug 4.1 21:11:14 10° N 21:16:24 33° ENE 21:20:26 15° ESE visible
04 Aug 4.8 22:55:35 10° NW 23:00:22 28° WSW 23:02:23 22° SW visible
05 Aug 4.1 20:57:48 10° N 21:02:56 33° ENE 21:07:44 11° SE visible
05 Aug 4.8 22:42:04 10° NW 22:46:54 28° WSW 22:49:41 19° SW visible
